STARLINK-3098, 49442

Orbit data source: Space-Track

STARLINK-3098, 49442 is a payload satellite owned by SpaceX/Seattle (US) in LEO that was launched on Sat, 13 Nov 2021 UTC via an FALCON 9 launch vehicle from the Air Force Eastern Test Range (AFETR). Payload-class satellites include a variety of spacecraft equipped with specific instruments for various scientific and technological missions. These include communications satellites like Starlink; space stations such as the ISS; scientific satellites like the Hubble; Earth observation satellites from companies like Planet Labs, Umbra, and HawkEye 360; GPS; miniature CubeSats for education and research; and military/defense satellites.

Loading next visibility...
Identifier
49442, 2021-104AL
Orbit
LEO
Country
Flag of USUS
Related business
Manufacturer
SpaceX/Seattle
Mission
Operational Commercial Communications
Bus & Motor
STARLINK, Unknown motor
Mass
290 kg wet, ~270 kg dry
Launch date (UTC)
2021-11-13 (5 years ago)
Launch vehicle
FALCON 9
Launch site
Air Force Eastern Test Range (AFETR)
Object type
Payload
Rocket body
Debris
Shape & HBR
Box + 1 Pan, 10.1 m
Radar Cross Section
13.562 m², Large (>1 m²)

Expand to show TLE details & history
Last TLE update: 1 week ago

TLE from 1 week ago
0 STARLINK-3098
1 49442U 21104AL  26154.33274977  .00001291  00000-0  99176-4 0  9990
2 49442  53.1812 184.6297 0001483  38.7072 321.4026 15.08844323251841
Epoch: 2026-06-03T07:59Z
TLE epoch observation values (Epoch: 2026-06-03T07:59:09.580Z)
Latitude
0.00002°
Longitude
173.04691°
Altitude
539.822 km
Speed
7.594 km/s
True Right ascension
12h 18m 31s
True Declination
0° 00' 00"
Sunlit
Object was in daylight at epoch
Visualization orbit readout
Latitude
Unknown
Longitude
Unknown
Altitude
Unknown
Speed
Unknown
Apparent Right ascension
Unknown
Apparent Declination
Unknown
Sunlit
N/A
Visualization observer readout
Local Sidereal Time
13:26:59
Azimuth
Unknown
Elevation
Unknown
Doppler factor
Unknown
Orbital elements
Apogee altitude
541.007 km
Perigee altitude
538.955 km
Semi-major axis
6,918.118 km
Eccentricity
0.00015
Inclination
53.1812°
RAAN
184.6297°
Arg. of periapsis
38.7072°
True anomaly
321.392°
Mean anomaly
321.4026°
Eccentric anomaly
321.3973°
Mean motion
3.77191 °/min
Orbital period
95.44 mins
BSTAR
0.000099176
Loading maneuver chart data...
Computing Atmospheric mass density...
Loading historical data...
Loading historical data...
Loading historical data...
Loading historical data...
Loading historical data...
Loading historical data...
Loading historical data...

Documentation

Showing up to 5 results
|